Back to catalog

STARLINK-32702

AliveCommunicationsVLEO
NORAD 62432·PAYLOAD·🇺🇸 United States

Launched Dec 29, 2024 from Vandenberg Space Force Base

Loading…

Next Passes (next 24 hours)

TLE

FreshSource: CelesTrak SupGP

Epoch: Sep 15, 2026, 02:06 UTC

1 62432C 24251A   26258.08798611 -.00054922  00000+0 -16226-2 0  2584
2 62432  53.1571 171.1410 0001278  84.2331  94.0383 15.34419659    10

Track STARLINK-32702 in real time with AllMySat

Download on the App Store